Wind_Speed
4 5 5 5 5 5 5 6 6 7 7 7 7 8 8 8 9 9 9 8 8 8 9 9 9 9 9 9 9 9 8 8 8 8 8 8 8 8 8 8 8 8 8
5 5 5 6 5 5 5 6 6 7 7 7 7 8 8 8 8 8 8 8 8 8 9 8 8 8 8 8 8 8 8 8 7 7 7 7 7 7 8 8 8 8 7
6 6 6 6 6 6 6 6 7 7 7 7 7 7 7 7 7 8 8 8 8 8 8 7 7 7 7 7 7 7 7 7 7 6 6 6 6 7 7 8 8 8 8
7 7 7 7 7 7 7 7 7 7 7 8 7 7 7 7 7 7 7 7 7 7 7 7 6 6 6 6 6 6 6 5 6 5 5 5 6 7 7 7 7 7 7
7 8 8 8 8 8 8 7 8 8 8 8 8 7 7 7 6 6 6 6 6 6 6 6 5 5 4 4 4 4 5 4 5 5 5 5 5 6 6 6 6 6 6
8 9 9 9 9 9 9 8 9 9 8 8 8 7 7 7 6 6 5 5 5 5 5 5 4 4 3 3 3 3 3 4 4 4 4 4 4 4 5 5 5 4 5
9 10 10 11 10 10 9 9 9 9 9 9 9 8 7 7 6 6 6 5 5 4 4 4 4 3 3 3 3 3 3 3 3 3 3 3 3 3 3 3 3 3 4
9 11 11 11 11 11 10 10 10 10 10 10 9 9 8 7 7 6 6 5 4 4 4 4 3 4 3 3 3 2 2 2 2 2 2 2 2 2 2 2 2 2 2
10 10 11 11 12 11 11 11 11 10 10 10 10 10 9 8 8 7 7 6 5 5 4 4 4 4 4 4 4 3 3 3 3 2 2 2 1 0 0 0 0 1 1
11 11 11 11 12 11 11 11 11 11 10 11 11 11 10 9 8 8 7 6 6 5 5 5 5 5 5 5 5 5 4 4 4 4 3 3 3 2 2 2 1 1 2
11 11 12 12 12 12 11 12 12 12 12 12 12 11 11 10 9 9 8 7 6 6 6 6 6 6 6 6 6 6 6 5 5 5 5 4 4 4 3 3 3 3 3
12 12 13 13 13 13 13 13 13 13 12 13 13 12 12 11 10 10 9 8 7 6 6 7 7 7 7 7 7 7 7 6 6 6 6 6 6 6 5 5 5 5 5
12 12 13 14 14 14 14 14 13 13 13 13 14 13 12 12 12 11 10 10 9 8 7 7 7 7 7 8 8 8 8 8 8 8 8 7 7 7 7 6 6 6 7
12 13 13 14 15 15 15 15 14 14 14 14 14 14 13 12 12 11 10 10 10 9 9 8 8 8 8 8 9 9 8 9 9 9 9 9 8 8 8 8 8 8 8
12 13 13 14 15 16 16 15 15 15 15 15 15 15 14 12 12 11 11 10 10 10 9 8 8 8 8 8 8 8 8 8 8 9 10 9 9 9 9 9 8 9 8
12 13 14 14 14 16 16 15 15 15 15 15 15 14 14 13 12 12 11 11 11 10 10 9 9 9 9 9 9 9 9 9 9 9 9 9 10 10 10 10 10 9 9
13 13 14 14 14 15 15 15 15 15 14 14 14 14 14 14 13 12 11 10 10 10 10 10 10 9 9 9 9 9 9 9 10 10 10 10 10 10 11 11 11 11 11
12 13 14 13 14 15 15 14 15 16 15 14 14 15 14 13 13 13 12 11 11 10 10 10 9 8 8 8 9 9 9 9 10 10 10 11 11 11 11 11 11 12 11
11 12 13 14 13 15 15 14 14 15 15 14 14 14 14 13 13 12 12 11 10 10 10 10 9 8 9 9 8 8 9 9 9 9 10 10 10 10 10 11 12 12 13
12 13 14 14 13 13 15 15 14 14 14 13 13 13 13 13 13 12 11 11 10 10 10 10 10 9 9 8 8 8 8 9 9 9 9 9 10 10 11 12 12 12 13
12 13 13 13 13 12 13 14 14 14 14 13 12 12 12 12 12 11 11 10 10 9 9 9 9 9 8 7 7 7 8 8 9 9 9 9 9 10 10 11 12 12 12
13 13 13 13 12 12 11 13 14 14 13 12 12 11 12 12 12 11 11 10 9 8 8 8 8 8 8 8 7 7 8 8 8 8 8 9 9 10 10 11 11 11 12
13 13 13 13 13 13 13 12 12 12 12 12 11 11 11 11 11 10 10 10 9 8 8 8 7 7 7 7 7 8 8 7 8 8 8 8 9 9 10 10 11 11 11
13 13 13 13 13 13 14 12 11 11 11 12 11 11 11 11 11 10 10 9 9 9 8 8 8 7 7 7 7 7 7 7 7 8 8 8 9 9 10 9 9 10 10
12 13 13 13 13 13 13 12 12 11 11 10 10 9 10 11 11 10 9 8 8 7 7 7 7 7 7 7 6 6 7 7 7 8 8 8 9 9 9 9 9 9 10
12 12 12 12 13 13 12 12 12 11 11 10 10 10 9 10 10 9 9 8 7 6 6 6 6 6 6 5 6 6 7 7 7 8 8 8 9 9 9 10 9 10 10
Wind_Direction
197 180 175 172 169 171 168 163 160 154 149 145 143 140 136 131 127 124 123 121 119 115 112 109 106 102 100 100 98 95 92 91 90 87 84 82 76 75 75 71 69 72 71
207 195 187 181 182 188 185 179 174 168 161 153 149 145 141 136 133 128 126 126 126 122 118 114 111 107 104 102 99 96 96 95 92 88 85 81 77 77 76 72 73 72 70
215 206 198 192 192 199 199 194 191 184 174 165 156 153 149 146 142 137 134 130 130 128 125 122 118 113 109 104 101 100 97 96 96 92 89 82 77 83 78 75 75 70 67
223 216 210 207 203 203 206 205 198 193 186 179 170 164 161 156 151 146 141 136 136 135 133 130 127 125 120 113 109 107 104 101 102 99 93 87 88 86 77 77 74 70 69
232 222 218 212 209 208 210 213 207 203 197 191 185 178 174 169 160 157 152 146 145 145 145 145 142 139 132 125 121 119 116 112 110 105 98 101 99 91 78 74 72 70 69
238 227 222 217 213 213 215 217 216 212 206 200 195 191 187 185 178 171 168 164 162 159 160 163 159 153 144 148 148 139 130 126 118 113 106 104 104 93 80 72 69 66 62
238 233 228 221 217 215 215 217 218 215 212 207 203 201 200 198 194 188 181 181 182 176 174 177 177 177 170 176 178 166 144 133 128 125 122 118 106 96 83 71 62 57 50
245 238 231 226 223 221 216 217 219 219 216 212 211 212 210 209 204 200 195 196 195 192 192 194 201 200 196 198 197 195 180 171 171 162 157 150 122 100 88 76 51 46 38
245 238 233 229 226 221 219 219 224 224 222 217 216 216 215 215 213 210 205 208 216 220 219 219 225 224 222 221 219 216 215 215 214 212 214 223 226 189 196 187 326 349 2
247 238 234 230 225 223 222 223 225 226 224 222 220 219 218 218 219 218 217 220 227 232 229 229 234 238 235 236 234 232 235 242 241 235 229 240 247 255 252 246 269 282 297
245 243 234 230 227 228 229 229 229 230 229 224 223 223 220 221 224 224 224 229 234 238 238 237 237 242 244 245 248 247 249 254 256 256 246 251 251 252 257 258 260 271 276
246 244 237 235 232 232 231 232 232 232 231 229 228 230 227 226 228 228 229 232 234 240 245 247 248 247 249 249 252 254 257 262 259 268 261 262 257 252 252 258 265 269 271
249 245 241 240 238 234 232 233 235 234 232 232 233 234 233 230 233 232 231 234 239 243 246 251 250 250 254 256 257 258 259 259 264 265 268 268 260 255 253 256 265 267 267
250 247 245 244 240 236 234 234 237 238 234 234 235 235 233 233 235 233 232 238 244 247 250 250 250 250 256 258 260 261 265 267 265 265 265 266 265 261 259 259 263 265 266
250 249 249 249 242 236 234 234 235 237 238 236 236 237 235 235 236 235 235 238 243 248 252 253 252 253 255 259 260 262 267 271 269 262 261 262 264 263 265 266 267 268 267
257 253 251 252 245 239 236 235 237 240 242 237 237 238 236 237 237 239 243 242 243 245 250 254 257 255 257 262 265 266 268 271 272 268 264 266 267 265 268 269 268 268 268
258 255 252 253 245 238 236 237 239 239 239 239 238 239 236 237 240 240 241 238 241 248 251 252 255 255 260 264 268 270 271 271 272 273 270 270 271 270 270 270 270 270 271
259 255 253 254 248 240 237 238 238 238 239 242 241 240 237 235 237 238 238 239 242 248 251 255 255 254 261 266 271 274 273 273 273 274 273 274 275 275 273 271 273 272 275
264 259 258 256 250 242 240 238 236 237 239 240 239 240 237 234 235 238 239 241 244 248 252 253 253 256 264 266 271 275 276 276 275 275 275 277 276 277 276 277 276 275 276
265 261 261 256 248 246 239 238 237 237 237 237 237 235 235 235 234 237 240 239 241 247 251 252 253 257 264 268 274 277 280 280 277 276 279 279 278 279 277 280 280 281 278
265 261 259 253 247 246 238 233 234 234 233 234 233 232 233 236 237 237 235 238 240 246 251 252 252 256 263 269 273 275 281 284 283 281 281 284 284 284 284 285 288 284 283
263 260 258 247 247 247 240 236 234 232 232 232 232 230 231 234 234 231 232 236 238 244 248 252 251 254 259 267 271 275 282 285 285 286 287 289 289 288 289 289 290 289 286
261 259 254 246 246 243 241 240 236 233 230 231 233 231 227 230 229 229 229 233 237 244 249 248 249 256 259 267 273 275 276 280 286 289 291 293 298 296 295 295 293 293 294
260 256 251 246 243 241 239 237 233 232 230 229 232 230 227 227 225 225 227 231 237 242 245 246 251 255 260 269 274 276 276 279 287 289 293 297 301 302 301 301 301 303 298
256 250 244 244 240 238 237 235 228 227 227 227 228 228 227 223 218 219 222 228 233 234 236 243 249 253 260 267 274 278 283 285 289 294 297 301 305 307 306 306 303 306 305
250 244 239 239 239 236 233 227 225 225 228 227 227 228 226 219 217 217 216 220 225 226 230 238 245 251 257 264 272 280 286 293 298 299 301 304 307 309 310 310 309 308 308
Height
5874 5874 5874 5875 5876 5876 5877 5877 5877 5878 5878 5878 5878 5879 5879 5880 5880 5881 5881 5882 5882 5883 5884 5885 5885 5886 5886 5887 5887 5888 5888 5888 5889 5889 5889 5890 5890 5890 5890 5890 5891 5891 5891
5873 5874 5874 5875 5876 5877 5877 5878 5878 5878 5879 5879 5879 5880 5880 5881 5881 5882 5882 5882 5883 5884 5885 5886 5887 5887 5888 5888 5888 5889 5889 5889 5890 5890 5890 5891 5891 5891 5891 5892 5892 5892 5892
5873 5873 5874 5875 5876 5877 5877 5878 5878 5879 5879 5880 5880 5881 5881 5882 5882 5883 5883 5883 5884 5885 5886 5887 5888 5888 5889 5889 5890 5890 5890 5890 5891 5891 5892 5892 5892 5892 5893 5893 5893 5893 5894
5873 5873 5874 5875 5876 5876 5877 5878 5878 5879 5880 5880 5881 5881 5882 5882 5883 5884 5884 5885 5885 5887 5887 5888 5889 5889 5890 5890 5891 5891 5891 5892 5892 5892 5892 5893 5893 5894 5894 5894 5894 5895 5895
5872 5873 5874 5874 5875 5876 5877 5878 5879 5879 5880 5880 5881 5882 5882 5883 5884 5884 5885 5886 5887 5887 5888 5889 5890 5890 5891 5891 5891 5892 5892 5893 5893 5893 5893 5894 5894 5894 5895 5895 5895 5896 5896
5872 5872 5873 5873 5875 5875 5876 5877 5878 5879 5880 5880 5881 5882 5883 5883 5884 5885 5886 5887 5887 5888 5889 5889 5890 5891 5891 5892 5892 5893 5893 5893 5893 5894 5894 5895 5895 5895 5895 5896 5896 5897 5897
5870 5871 5871 5872 5873 5874 5876 5877 5877 5878 5879 5880 5881 5882 5883 5884 5884 5885 5886 5887 5888 5888 5889 5890 5890 5891 5892 5892 5892 5893 5893 5894 5894 5894 5895 5895 5895 5896 5896 5897 5897 5898 5898
5869 5869 5870 5871 5872 5873 5874 5876 5877 5878 5879 5880 5881 5882 5883 5884 5884 5885 5886 5887 5888 5889 5889 5890 5891 5891 5892 5892 5893 5893 5893 5894 5894 5895 5895 5896 5896 5896 5897 5897 5898 5898 5898
5867 5868 5869 5870 5871 5872 5873 5874 5875 5877 5878 5879 5880 5881 5882 5883 5884 5885 5886 5887 5888 5888 5889 5890 5891 5891 5892 5892 5892 5893 5893 5894 5894 5895 5895 5896 5896 5897 5897 5897 5898 5898 5899
5865 5866 5867 5868 5870 5871 5872 5873 5874 5876 5877 5878 5879 5880 5881 5882 5884 5884 5885 5886 5887 5888 5889 5889 5890 5891 5891 5892 5892 5893 5893 5894 5895 5895 5895 5896 5896 5897 5897 5898 5898 5899 5899
5863 5864 5866 5867 5868 5869 5871 5872 5873 5874 5876 5877 5878 5879 5880 5882 5883 5884 5885 5886 5886 5887 5888 5889 5890 5891 5891 5892 5892 5892 5893 5894 5894 5894 5894 5895 5896 5897 5897 5898 5898 5898 5899
5861 5862 5864 5865 5867 5868 5869 5870 5872 5873 5874 5876 5877 5878 5879 5881 5882 5883 5884 5885 5886 5886 5887 5888 5889 5890 5890 5891 5891 5892 5892 5893 5894 5893 5893 5895 5895 5896 5897 5897 5898 5898 5898
5860 5860 5862 5863 5864 5866 5867 5869 5870 5871 5873 5874 5876 5877 5878 5879 5881 5882 5883 5884 5885 5885 5886 5887 5888 5889 5889 5890 5891 5891 5892 5892 5893 5892 5892 5894 5894 5895 5896 5896 5897 5897 5898
5858 5859 5860 5861 5862 5863 5865 5866 5868 5870 5871 5873 5874 5876 5877 5878 5880 5881 5882 5883 5884 5884 5885 5886 5887 5888 5888 5889 5889 5890 5891 5891 5892 5892 5892 5893 5894 5894 5895 5895 5896 5896 5897
5856 5857 5858 5859 5859 5861 5862 5864 5866 5868 5869 5871 5872 5874 5876 5877 5878 5879 5880 5881 5882 5883 5884 5885 5886 5886 5887 5887 5888 5889 5889 5889 5890 5891 5891 5892 5892 5893 5893 5894 5894 5895 5895
5853 5854 5855 5856 5857 5858 5860 5862 5864 5866 5867 5868 5870 5872 5874 5875 5877 5878 5879 5880 5881 5882 5883 5884 5884 5885 5885 5886 5887 5887 5888 5888 5888 5889 5889 5890 5890 5891 5892 5892 5893 5893 5894
5851 5852 5853 5854 5854 5856 5858 5859 5861 5863 5865 5866 5868 5870 5872 5874 5875 5876 5877 5878 5879 5880 5881 5882 5883 5883 5884 5884 5885 5886 5886 5887 5887 5887 5888 5888 5889 5889 5890 5890 5891 5892 5892
5849 5850 5851 5851 5852 5854 5855 5857 5859 5861 5863 5865 5866 5868 5869 5871 5873 5874 5876 5877 5878 5879 5880 5881 5881 5882 5883 5883 5884 5884 5885 5885 5885 5885 5886 5887 5887 5887 5888 5888 5889 5889 5890
5847 5848 5848 5849 5851 5852 5854 5855 5857 5859 5861 5863 5864 5866 5867 5869 5871 5872 5874 5875 5876 5877 5878 5879 5880 5881 5881 5881 5882 5882 5883 5883 5883 5884 5884 5884 5885 5885 5886 5886 5886 5887 5887
5845 5845 5846 5847 5848 5850 5851 5853 5855 5857 5859 5861 5862 5864 5865 5867 5869 5870 5872 5873 5874 5875 5877 5878 5878 5879 5880 5880 5881 5881 5881 5881 5882 5882 5882 5882 5882 5883 5883 5884 5884 5884 5884
5843 5843 5844 5845 5846 5848 5849 5851 5853 5854 5856 5859 5860 5862 5863 5865 5867 5868 5870 5871 5873 5874 5875 5876 5877 5878 5878 5879 5879 5880 5880 5880 5880 5880 5880 5880 5880 5881 5881 5881 5881 5881 5881
5840 5841 5841 5843 5844 5845 5847 5849 5851 5852 5854 5857 5858 5860 5862 5863 5865 5866 5868 5870 5871 5872 5873 5874 5875 5876 5876 5877 5878 5878 5878 5879 5878 5878 5879 5879 5879 5879 5879 5879 5879 5879 5879
5837 5838 5839 5841 5842 5843 5845 5847 5849 5851 5853 5855 5856 5858 5860 5861 5863 5865 5866 5868 5869 5871 5872 5873 5874 5874 5875 5876 5876 5877 5877 5877 5877 5877 5877 5877 5877 5877 5877 5876 5876 5876 5876
5835 5836 5837 5838 5839 5841 5843 5845 5847 5849 5851 5853 5854 5856 5858 5859 5861 5863 5865 5866 5868 5869 5870 5871 5872 5873 5874 5874 5874 5875 5875 5875 5876 5876 5876 5875 5875 5875 5875 5874 5874 5874 5874
5832 5833 5834 5836 5837 5839 5841 5843 5845 5847 5849 5851 5852 5854 5856 5858 5859 5861 5863 5865 5866 5867 5868 5869 5870 5871 5872 5873 5873 5873 5874 5874 5874 5874 5874 5874 5874 5873 5873 5873 5872 5872 5872
5829 5830 5832 5833 5835 5836 5838 5841 5843 5845 5848 5849 5851 5852 5854 5856 5858 5860 5861 5863 5865 5866 5867 5868 5869 5870 5871 5871 5872 5872 5872 5873 5873 5873 5873 5872 5872 5871 5871 5871 5870 5870 5869